Location: Newark
(19.2128°S, 49.7858°W)
Time: 02:06:54
(UTC+00:00)

Envisat - Pass Details

Date: 28 August 2019
Orbit: 764 x 766 km, 98.1° (Epoch: 17 October)

Event Time Altitude Azimuth Distance (km) Brightness Sun altitude
Rises 21:39:17 0° 157° (SSE) 3,248 5.9 -7.6°
Reaches altitude 10° 21:41:44 10° 149° (SSE) 2,316 5.1 -8.1°
Maximum altitude 21:46:30 39° 80° (E) 1,132 3.4 -9.2°
Drops below altitude 10° 21:51:13 10° 11° (NNE) 2,294 5.4 -10.3°
Sets 21:53:38 0° 4° (N) 3,213 6.3 -10.9°
